Regional Weather Roundup
Issued by NWS Upton, NY

Current Version | Previous Version | Graphics & Text | Print | Product List | Glossary Off
Versions: 1 2 3 4 5 6 7 8 9 10 11 12 13 14 15 16 17 18 19 20 21 22 23 24 25 26 27 28 29 30 31 32 33 34 35 36 37 38 39 40 41 42 43 44 45 46 47 48 49 50

973
ASUS41 KOKX 120704
RWROKX

REGIONAL WEATHER ROUNDUP
NATIONAL WEATHER SERVICE NEW YORK NY
200 AM EST FRI FEB 12 2016

NOTE: "FAIR" INDICATES FEW OR NO CLOUDS BELOW 12,000 FEET WITH NO
SIGNIFICANT WEATHER AND/OR OBSTRUCTIONS TO VISIBILITY.

NYZ071-072-176-178-NJZ106-104-120800-
NEW YORK CITY METRO AREA


CITY           SKY/WX    TMP DP  RH WIND       PRES   REMARKS
CENTRAL PARK   CLEAR     18  -3  39 VRB7G18   30.23S WCI   9
LAGUARDIA APRT CLEAR     19   1  45 NW20G30   30.23R WCI   3
KENNEDY INTL   PTCLDY    19  -3  38 NW21G28   30.24S WCI   3
NEWARK/LIBERTY PTCLDY    17  -2  43 NW13G20   30.24R WCI   4
BRNX BOT. GARD   N/A     18   0  45 W31       30.24F WCI  -2
TETERBORO      PTCLDY    17  -2  43 NW10G17   30.23R WCI   5
$$

NYZ177-179-078>081-120800-
LONG ISLAND NEW YORK

CITY           SKY/WX    TMP DP  RH WIND       PRES   REMARKS
FARMINGDALE    CLEAR     18  -2  41 NW13G18   30.22R WCI   5
ISLIP          PTCLDY    16   0  49 W13       30.20R WCI   2
SHIRLEY        CLEAR     16   0  49 NW15G21   30.20R WCI   1
RIVERHEAD        N/A     19  -8  30 W10       30.17R WCI   8
WESTHAMPTON    MOCLDY    14   0  53 W10       30.21R WCI   1
EAST HAMPTON   FAIR      16   0  49 NW7G17    30.17R WCI   6
MONTAUK POINT    N/A     17   2  51 W13G24    30.17R WCI   4
$$

NYZ052-065-067-120800-
HUDSON VALLEY

CITY           SKY/WX    TMP DP  RH WIND       PRES   REMARKS
WHITE PLAINS   CLEAR     14  -2  49 W14G25    30.17R WCI  -1
NEWBURGH       CLEAR     12   3  67 W18G25    30.17R WCI  -5
MONTGOMERY     CLEAR     13   0  56 W9        30.18R WCI   1
POUGHKEEPSIE   PTCLDY    15   1  53 VRB3      30.18R
ALBANY         PTCLDY     6  -5  60 W6        30.18R WCI  -4
$$

NJZ001-105-106-008-010-013-015-019>022-104-120800-
NEW JERSEY

CITY           SKY/WX    TMP DP  RH WIND       PRES   REMARKS
NEWARK/LIBERTY PTCLDY    17  -2  43 NW13G20   30.24R WCI   4
TETERBORO      PTCLDY    17  -2  43 NW10G17   30.23R WCI   5
CALDWELL       PTCLDY    16  -3  43 NW6       30.23R WCI   7
MORRISTOWN     PTCLDY    16  -4  41 W9G17     30.24R WCI   4
SOMERVILLE     CLEAR     16   0  49 NW6       30.23S WCI   7
SUSSEX         CLEAR     14  -2  49 VRB3      30.19R
ANDOVER          N/A     13  -3  49 CALM      30.20S
TRENTON        PTCLDY    18   0  45 W6        30.25R WCI  10
MILLVILLE      CLEAR     18   4  54 NW7       30.30R WCI   9
ATLANTIC CITY  CLEAR     19   2  47 W10       30.29R WCI   7
WRIGHTSTOWN    CLEAR     18  -1  44 NW8       30.22S WCI   8
TOMS RIVER     CLEAR     18   0  45 NW9G16    30.26S WCI   6
BELMAR         CLEAR     19  -2  38 NW12      30.24R WCI   7
$$

PAZ047>061-062-071-120800-
EASTERN PENNSYLVANIA

CITY           SKY/WX    TMP DP  RH WIND       PRES   REMARKS
PHILADELPHIA   PTCLDY    20  -2  38 W10       30.29S WCI   9
ALLENTOWN      CLEAR     15   1  53 W3        30.23F
SCRANTON       CLEAR     11  -2  56 W7        30.17S WCI   0
$$

CTZ002-004>006-009-010-012-RIZ004-006-007-MAZ004-011-015-120800-
SOUTHERN NEW ENGLAND
 IN CT

CITY           SKY/WX    TMP DP  RH WIND       PRES   REMARKS
BRADLEY INTL   CLEAR      9  -5  53 NW12G17   30.15R WCI  -6
HARTFORD       CLEAR     13  -3  49 NW7G21    30.19R WCI   3
DANBURY        CLEAR     12  -2  53 W6        30.17R WCI   3
WTRBRY/OXFORD  CLEAR      9  -8  47 NW3       30.13R
BRIDGEPORT     CLEAR     16   1  51 W8G20     30.20R WCI   5
MERIDEN        CLEAR     12  -1  56 NW5       30.18R WCI   4
NEW HAVEN      CLEAR     15   0  51 N10       30.19R WCI   2
CHESTER        FAIR      12   1  62 NW7       30.15R WCI   2
GROTON         CLEAR     13   0  56 NW13G26   30.17R WCI  -2
WILLIMANTIC    CLEAR     11  -5  48 NW6       30.15R WCI   1

 IN RI

CITY           SKY/WX    TMP DP  RH WIND       PRES   REMARKS
PROVIDENCE     CLEAR     11  -7  44 NW16G22   30.13R WCI  -6
BLOCK ISLAND   MOCLDY    16   3  57 NW22G33   30.12R WCI  -2
WESTERLY       CLEAR     12  -2  53 NW8       30.16R WCI   0

 IN MA

CITY           SKY/WX    TMP DP  RH WIND       PRES   REMARKS
BOSTON         CLEAR      9  -7  48 W21G28    30.10R WCI -11
WORCESTER      CLEAR      3 -10  54 W15G23    30.01R WCI -16
WESTFIELD      PTCLDY     8  -6  52 NW17G26   30.12R WCI -10
PROVINCETOWN   MOCLDY    14   4  64 W25G36    30.07R WCI  -5
NANTUCKET      CLOUDY    17   3  54 W17G32    30.07R WCI   1
$$

ANZ330-335-338-340-345-350-353-355-120800-
COASTAL MARINE OBSERVATIONS


STATION/POSITION TIME  SKY/WX   TEMP    WIND        PRES    VSBY  WAVE
                                AIR SEA DIR/SP/G                  HT/PER
                 (UTC)          (F)     (DEG/KT/KT) (MB)    (MI)  (FT/S)
NY HARB ENTRANCE 0550            23 42  310/ 23/ 29 1022.7          4/ 5
4S FIRE IS       NOT AVBL
20S FIRE ISLAND  0550            23 44  300/ 23/ 29 1022.3          7/ 6
GREAT SOUTH BAY  NOT AVBL
23SW MTP         0650            21 45  290/ 23/ 31 1021.1          7/ 7
HUDSON CANYON    0550            27 48              1021.9         11/ 8
KINGS POINT      0600            19 35  350/ 18/ 24 1022.9
EXECUTION ROCKS  NOT AVBL
CENTRAL LI SOUND 0600            20     290/ 19/ 27   N/A           5/ 6
EASTERN LI SOUND 0600            19 40  310/ 16/ 21   N/A
ROBBINS REEF     0600            19     310/ 22/ 27 1022.8
$$


>>>>>>>>>>>>>>>>>>>>>>>>>>>> KEY <<<<<<<<<<<<<<<<<<<<<<<<<<<
>                                                          <
>     SKY/WX - SKY CONDITION/PRESENT WEATHER               <
>     TMP    - TEMPERATURE IN FAHRENHEIT                   <
>     DP     - DEWPOINT IN FAHRENHEIT                      <
>     RH     - RELATIVE HUMIDITY IN PERCENT                <
>     WIND   - DIRECTION AND SPEED IN MPH                  <
>     PRES   - MEAN SEA LEVEL PRESSURE IN INCHES OF HG     <
>     WCI    - WIND CHILL INDEX                            <
>     VSB    - VISIBILITY IN MILES                         <
>     HX     - HEAT INDEX                                  <
>     TC     - TEMPERATURE IN CELSIUS                      <
>     VRB    - VARIABLE WIND DIRECTION                     <
>                                                          <
>>>>>>>>>>>>>>>>>>>>>>>>>>>> KEY <<<<<<<<<<<<<<<<<<<<<<<<<<<






USA.gov is the U.S. government's official web portal to all federal, state and local government web resources and services.